カタログに戻る

ARIANE 42L R/B

運用中HEO
NORAD 26299·ROCKET BODY·🇫🇷 France

打ち上げ Apr 19, 2000 から Guiana Space Centre

Loading…

次のパス (今後24時間)

TLE

最新Source: Space-Track

元期: Sep 14, 2026, 04:45 UTC

1 26299U 00020B   26257.19845036 -.00000061  00000-0 -26049-3 0  9991
2 26299   7.4298 322.2014 5393061 110.0903 313.8411  4.62869036370998

AllMySatでARIANE 42L R/Bをリアルタイム追跡

Download on the App Store